This is the latest recevied weather packets stored in our database for station/object IK2ILW-4. If no packets are shown the sender has not sent any weather packets the latest 10 day(s).
| Time | Temp. | Humidity | Pressure | Rain* | Wind** | Luminosity | Snow |
|---|---|---|---|---|---|---|---|
| 1788014870 | 20° C | 78% | 1019.8 hPa | 0.25 mm | - | 232 W/m² | - |
| 1788014569 | 20° C | 79% | 1019.9 hPa | 0.25 mm | - | 128 W/m² | - |
| 1788014272 | 20° C | 79% | 1019.9 hPa | 0.25 mm | - | 125 W/m² | - |
| 1788013958 | 20° C | 80% | 1019.9 hPa | 0.25 mm | - | 311 W/m² | - |
| 1788013671 | 19.44° C | 79% | 1020 hPa | 0.25 mm | - | 174 W/m² | - |
| 1788013365 | 20° C | 79% | 1020 hPa | 0.25 mm | - | 171 W/m² | - |
| 1788013053 | 20° C | 78% | 1020 hPa | 0.25 mm | - | 227 W/m² | - |
| 1788012764 | 20° C | 78% | 1020.1 hPa | 0.25 mm | - | 661 W/m² | - |
| 1788012460 | 20° C | 78% | 1020.1 hPa | 0.25 mm | - | 694 W/m² | - |
| 1788012172 | 20° C | 77% | 1020.1 hPa | 0.25 mm | - | 230 W/m² | - |
| 1788011871 | 20° C | 77% | 1020 hPa | 0.25 mm | - | 193 W/m² | - |
| 1788011559 | 20° C | 78% | 1020 hPa | 0.25 mm | - | 132 W/m² | - |
| 1788011270 | 20° C | 77% | 1020 hPa | 0.25 mm | - | 151 W/m² | - |
| 1788010960 | 20° C | 77% | 1020.1 hPa | 0.25 mm | - | 174 W/m² | - |
| 1788010657 | 20° C | 77% | 1020.1 hPa | 0.25 mm | - | 178 W/m² | - |
| 1788010366 | 20° C | 77% | 1020.1 hPa | 0.25 mm | - | 200 W/m² | - |
| 1788010055 | 20° C | 76% | 1020.1 hPa | 0.25 mm | - | 190 W/m² | - |
| 1788009764 | 20° C | 77% | 1020.1 hPa | 0.25 mm | - | 179 W/m² | - |
| 1788009474 | 20° C | 76% | 1020.1 hPa | 0.25 mm | - | 174 W/m² | - |
| 1788009157 | 20° C | 73% | 1019.9 hPa | 0.25 mm | - | 227 W/m² | - |
| 1788008854 | 20.56° C | 73% | 1019.9 hPa | 0.25 mm | - | 202 W/m² | - |
| 1788008551 | 20.56° C | 75% | 1019.9 hPa | 0.25 mm | - | 243 W/m² | - |
| 1788008261 | 20.56° C | 73% | 1020 hPa | 0.25 mm | - | 200 W/m² | - |
| 1788007958 | 21.11° C | 72% | 1020 hPa | 0.25 mm | - | 183 W/m² | - |
| 1788007656 | 21.11° C | 70% | 1020 hPa | 0.25 mm | - | 374 W/m² | - |
* Rain since midnight (hover to see other rain measurements)
** Current wind speed in m/s (hover to see current wind gust speed)